Track CUTE-1.7+APD II now! 10-day predictions CUTE-1.7+APD II is classified as:
1 32785U 08021C 25183.55040400 .00003678 00000-0 26619-3 0 9994 2 32785 97.7846 154.8874 0010903 129.5058 230.7134 15.04596628932536